Regional Weather Roundup
Issued by NWS Kansas City/Pleasant Hill, MO

Home | Current Version | Previous Version | Graphics & Text | Print | Product List | Glossary Off
Versions: 1 2 3 4 5 6 7 8 9 10 11 12 13 14 15 16 17 18 19 20 21 22 23 24 25 26 27 28 29 30 31 32 33 34 35 36 37 38 39 40 41 42 43 44 45 46 47 48 49 50

000
ASUS43 KEAX 201211
RWREAX

WEATHER ROUNDUP FOR EASTERN KANSAS AND NORTHWEST MISSOURI
NATIONAL WEATHER SERVICE KANSAS CITY/PLEASANT HILL MO
600 AM CST SAT DEC 20 2014

KSZ040-057-103>105-MOZ028-029-037-043-201300-
...KANSAS CITY METROPOLITAN AREA...

CITY           SKY/WX    TMP DP  RH WIND       PRES   REMARKS
K.C. INTL      CLOUDY    33  31  92 S8        30.17F WCI  26
6HR MIN TEMP:  32; 6HR MAX TEMP:  33; 6HR PCP: TRACE;

K.C. DOWNTOWN  CLOUDY    35  31  85 S6        30.20S WCI  30
6HR MIN TEMP:  34; 6HR MAX TEMP:  35;

LEES SUMMIT    CLOUDY    33  32  96 SW3       30.19S
6HR MIN TEMP:  33; 6HR MAX TEMP:  34;

OLATHE - IXD   CLOUDY    33  30  88 S7        30.19S WCI  27
6HR MIN TEMP:  32; 6HR MAX TEMP:  33; 6HR PCP: TRACE;

OLATHE - OJC   CLOUDY    33  31  92 SW5       30.18S WCI  29
6HR MIN TEMP:  33; 6HR MAX TEMP:  33;

LAWRENCE       CLOUDY    34  30  85 SE7       30.18F WCI  28

$$

MOZ001>008-011>017-020>025-030>033-038>040-044>046-053-054-201300-
...NORTHERN AND CENTRAL MISSOURI...

CITY           SKY/WX    TMP DP  RH WIND       PRES   REMARKS
ST. JOSEPH     CLOUDY    33  30  88 S10       30.17S WCI  25
6HR MIN TEMP:  31; 6HR MAX TEMP:  33;

MOSBY          CLOUDY    34  32  93 CALM      30.20S FOG
WARRENSBURG    CLOUDY    34  34 100 W3        30.21R FOG
WHITEMAN AFB   CLOUDY    37  36  93 CALM      30.19S
6HR MIN TEMP:  36; 6HR MAX TEMP:  37;

CLINTON        CLOUDY    37  37 100 CALM      30.21S
SEDALIA        FOG       38  37  97 CALM      30.21R VSB 3/4
6HR MIN TEMP:  37; 6HR MAX TEMP:  38;

WARSAW         NOT AVBL
MARSHALL       FOG       39  39 100 CALM      30.21S VSB 1/4
CHILLICOTHE      N/A     34  33  96 CALM      30.21S
6HR MIN TEMP:  33; 6HR MAX TEMP:  34;

MOBERLY        FOG       36  32  87 SE5       30.21F VSB 1/2 WCI  32
KIRKSVILLE     FOG       32  32 100 SE8       30.20S VSB 3/4 WCI  25
6HR MIN TEMP:  31; 6HR MAX TEMP:  32;


$$

MOZ041-047>049-056>058-063>065-088>090-097-201300-
...EASTERN AND SOUTHERN MISSOURI...

CITY           SKY/WX    TMP DP  RH WIND       PRES   REMARKS
ST. LOUIS INTL CLOUDY    36  27  69 SE6       30.25S WCI  31
6HR MIN TEMP:  36; 6HR MAX TEMP:  36;

SPIRIT OF STL  CLOUDY    35  29  78 CALM      30.24F
COLUMBIA       CLOUDY    35  34  96 SE6       30.21S FOG     WCI  30
JEFFERSON CITY CLOUDY    37  34  89 SE3       30.23S
MEXICO         CLOUDY   N/A N/A N/A SE3       30.22S HAZE
HANNIBAL       CLOUDY    34  28  80 SE3       30.23S
ROLLA          CLOUDY    35  32  88 SW6       30.20R WCI  30
LEBANON        CLOUDY    36  34  93 CALM      30.20R FOG
OSAGE BEACH    CLOUDY    37  34  87 CALM      30.21R
SPRINGFIELD    FOG       37  36  96 S9        30.19R VSB 3/4 WCI  30
NEVADA         CLOUDY    36  36 100 CALM      30.23R FOG
JOPLIN         CLOUDY    37  36  96 SW5       30.22S FOG     WCI  33
WEST PLAINS    CLOUDY    34  31  88 CALM      30.23R

$$

IAZ060-094-KSZ022-034>040-054-083-096-NEZ052-066-093-201300-
...KANSAS...SOUTHEAST NEBRASKA AND IOWA...

CITY           SKY/WX    TMP DP  RH WIND       PRES   REMARKS
TOPEKA         CLEAR     32  29  88 SE6       30.17S WCI  26
6HR MIN TEMP:  32; 6HR MAX TEMP:  35;

MANHATTAN      CLEAR     31  29  92 SW8       30.12F FOG     WCI  23
EMPORIA        CLEAR     30  29  96 S8        30.15S WCI  22
CHANUTE        CLOUDY    36  34  92 S3        30.21R
WICHITA        CLEAR     33  31  92 S9        30.15R FOG     WCI  25
OMAHA          FRZ DRZL  32  31  96 S12       30.11F FOG     WCI  23
LINCOLN        CLOUDY    33  31  92 S6        30.09S FOG     WCI  28
FALLS CITY     CLOUDY    32  29  88 SE6       30.12S WCI  26
LAMONI         CLOUDY    31  30  96 S5        30.16S FOG     WCI  26
DES MOINES     FLURRIES  32  28  85 SW6       30.17S WCI  26

$$



USA.gov is the U.S. government's official web portal to all federal, state and local government web resources and services.